Flag for Germany Weather past 2 weeks in Dorsten, North Rhine-Westphalia, Germany

Now
76 °F

Partly sunny.


Feels Like: 78 °F
Forecast: 64 / 80 °F
Wind: 3 mph from Northeast

Location: Essen

Current Time: Jul 28, 2014 at 1:22:13 PM

Latest Report: Jul 28, 2014 at 1:00 PM


Visibility: 13 mi

Pressure: 29.84 "Hg

Humidity: 64%

Dew point: 63 °F

Location of DorstenLocation

Historic Weather in Dorsten — Graph

°F

Dorsten temperature yesterday

Maximum temperature yesterday: 77 °F (at 6:00 PM)
Minimum temperature yesterday: 62 °F (at 6:00 AM)
Average temperature yesterday: 69 °F

Past Weeks' High & Low Weather Summary

 TemperatureHumidityPressure
High92 °F (Jul 19, 5:00 PM)100% (Jul 26, 6:00 AM)30.19 "Hg (Jul 26, 6:00 AM)
Low56 °F (Jul 15, 6:00 AM)27% (Jul 19, 1:00 PM)29.72 "Hg (Jul 13, 7:00 PM)
Average70 °F71%29.97 "Hg
* Reported Jul 13 12:00 Noon — Jul 28 12:00 Noon, Dorsten, Weather by CustomWeather, © 2014

Note: Actual official high and low records may vary slightly from our data, if they occured in-between our weather recording intervals... More about our weather records

Advertising

Dorsten weather history for previous 24 hours

 ConditionsComfort  
Time TempWeatherWind HumidityBarometerVisibility
12:00 PM
Jul 28
75 °FPartly sunny.3 mph65%29.85 "Hg12 mi
11:00 AM73 °FPassing clouds.5 mph70%29.86 "Hg9 mi
10:00 AM73 °FOvercast.3 mph72%29.86 "Hg7 mi
9:00 AM67 °FOvercast.3 mph82%29.88 "Hg6 mi
8:00 AM66 °FFog.3 mph85%29.89 "Hg4 mi
7:00 AM65 °FFog.3 mph85%29.90 "Hg4 mi
6:00 AM65 °FFog.3 mph85%29.90 "Hg4 mi
5:00 AM65 °FPassing clouds.3 mph87%29.92 "Hg5 mi
4:00 AM65 °FOvercast.2 mph88%29.93 "Hg5 mi
3:00 AM66 °FOvercast.2 mph84%29.94 "Hg8 mi
2:00 AM65 °FPassing clouds.1 mph85%29.96 "Hg8 mi
1:00 AM67 °FPassing clouds.2 mph80%29.97 "Hg11 mi
12:00 AM68 °FPassing clouds.1 mph77%29.97 "Hg10 mi
11:00 PM
Jul 27
71 °FOvercast.2 mph70%29.97 "Hg11 mi
10:00 PM69 °FOvercast.2 mph74%29.98 "Hg9 mi
9:00 PM73 °FPassing clouds.1 mph65%29.97 "Hg13 mi
8:00 PM75 °FSunny.2 mph56%29.96 "Hg11 mi
7:00 PM76 °FPassing clouds.2 mph55%29.95 "Hg10 mi
6:00 PM77 °FPartly sunny.2 mph57%29.96 "Hg9 mi
5:00 PM76 °FOvercast.3 mph56%29.97 "Hg10 mi
4:00 PM75 °FOvercast.3 mph59%29.98 "Hg9 mi
3:00 PM75 °FPartly sunny.2 mph61%30.00 "Hg9 mi
2:00 PM73 °FScattered clouds.2 mph64%30.00 "Hg9 mi
1:00 PM72 °FPartly sunny.3 mph69%30.01 "Hg7 mi
Weather by CustomWeather, © 2014

See weather overviewHow to use our weather pages